Location: Góry Miechowskie
(50.3599°N, 20.1803°E)
Time: 02:43:12
(UTC+00:00)

Transit 2A Rocket - Pass Details

Date: 15 September 2024
Orbit: 582 x 908 km, 66.7° (Epoch: 10 October)

Event Time Altitude Azimuth Distance (km) Brightness Sun altitude
Exits shadow 01:18:17 15° 304° (NW) 2,230 7.2 -26.3°
Maximum altitude 01:21:12 21° 340° (NNW) 1,922 7.2 -25.9°
Drops below altitude 10° 01:25:42 10° 28° (NNE) 2,579 8.6 -25.4°
Sets 01:28:51 0° 44° (NE) 3,489 9.8 -25.0°
